Location: Natural Bridges National Monument
(37.6093°N, 109.9767°W)
Time: 14:39:07
(UTC-06:00)

Cosmos 1727 Rocket - Visible Passes

Search period start: 26 September 2016 00:00
Search period end: 06 October 2016 00:00
Orbit: 962 x 996 km, 82.9° (Epoch: 26 September)

Date Brightness Start Highest point End Pass type
(mag) Time Alt. Az. Time Alt. Az. Time Alt. Az.
26 Sep 6.6 03:19:00 10° ESE 03:21:27 12° E 03:23:54 10° ENE visible
26 Sep 3.9 05:03:38 42° SSW 05:05:57 83° W 05:12:18 10° N visible
27 Sep 5.8 03:46:01 23° ESE 03:47:20 25° E 03:52:18 10° NNE visible
27 Sep 4.3 05:30:49 37° WSW 05:32:25 44° WNW 05:38:25 10° N visible
28 Sep 4.7 04:13:05 47° E 04:13:23 47° E 04:19:24 10° NNE visible
28 Sep 5.0 05:57:53 22° W 05:59:04 24° WNW 06:04:02 10° NNW visible
29 Sep 6.7 02:55:17 11° ENE 02:55:17 11° ENE 02:56:44 10° ENE visible
29 Sep 4.0 04:40:04 79° N 04:40:04 79° N 04:45:59 10° N visible
29 Sep 5.6 06:24:51 12° WNW 06:25:57 12° WNW 06:28:22 10° NW visible
30 Sep 6.0 03:22:12 21° ENE 03:22:12 21° ENE 03:25:48 10° NE visible
30 Sep 4.4 05:06:58 46° NW 05:06:58 46° NW 05:12:11 10° N visible
01 Oct 5.4 03:49:02 34° NE 03:49:02 34° NE 03:53:01 10° NNE visible
01 Oct 5.1 05:33:49 25° WNW 05:33:49 25° WNW 05:37:55 10° NNW visible
02 Oct 5.0 04:15:50 40° NNE 04:15:50 40° NNE 04:19:41 10° N visible
02 Oct 5.7 06:00:36 13° WNW 06:00:36 13° WNW 06:02:39 10° NW visible
03 Oct 6.5 02:57:48 15° NE 02:57:48 15° NE 02:59:15 10° NE visible
03 Oct 5.1 04:42:34 31° NNW 04:42:34 31° NNW 04:45:56 10° N visible
04 Oct 6.1 03:24:30 21° NE 03:24:30 21° NE 03:26:37 10° NNE visible
04 Oct 5.5 05:09:16 21° NNW 05:09:16 21° NNW 05:11:46 10° NNW visible
05 Oct 5.9 03:51:10 23° NNE 03:51:10 23° NNE 03:53:21 10° N visible
05 Oct 6.0 05:35:55 12° NW 05:35:55 12° NW 05:36:46 10° NNW visible
